{"data":{"norad_id":62391,"epoch":"2026-09-19T19:43:42.243744Z","epoch_age_seconds":76683,"freshness":"FRESH","line1":"1 62391U 24247Q   26262.82201671  .00033498  00000+0  53930-3 0  9994","line2":"2 62391  44.9718  88.0673 0009767 232.1281 127.8728 15.52377278 97992","mean_motion":15.52377278,"eccentricity":0.0009767,"inclination_deg":44.9718,"raan_deg":88.0673,"arg_perigee_deg":232.1281,"mean_anomaly_deg":127.8728,"bstar":0.0005393,"rev_number":9799,"period_min":92.760955755241,"perigee_km":403.15752464439,"apogee_km":416.41705595306,"semimajor_km":6787.9242902987,"source":"CELESTRAK","updated_at":"2026-09-20T09:00:48.039908Z"}}